CAPE
27 36 37 48 59 73 84 87 58 66 70 64 71 77 82 76 141 233 295 438 250 13 1 11 25 47 43 36 20 45 3 78 56 63 63 34 42 4 13 13 67 83 109 60 147 164 73 199 380 226 1233 1299 1226 1131
21 35 55 69 87 84 94 108 91 46 49 50 45 38 21 23 34 100 315 567 241 29 8 2 25 30 58 11 13 22 23 12 61 94 112 87 31 79 186 37 12 68 29 100 147 200 1034 387 1343 1033 793 834 1125 1050
24 47 48 59 64 80 80 59 22 21 32 36 34 25 31 29 29 39 280 236 149 46 13 20 41 80 54 37 0 28 0 3 1 48 38 78 90 116 218 227 309 226 144 234 208 190 811 547 503 617 746 998 1086 1142
17 2 16 28 42 64 55 37 38 41 40 29 18 11 5 7 4 12 237 320 45 56 47 1 41 17 37 24 31 0 0 16 97 12 14 78 71 83 89 50 40 61 6 111 276 1474 745 513 503 510 751 1087 1248 1658
17 9 6 29 50 66 56 42 32 25 12 4 0 0 4 18 17 7 37 83 166 31 54 3 0 0 7 168 27 10 0 0 157 28 19 88 101 61 83 89 104 22 18 22 675 59 78 653 317 613 644 750 918 1107
25 21 29 42 49 51 51 49 27 20 13 9 0 0 1 19 41 37 31 88 95 60 28 38 1 0 83 31 31 0 1 2 12 17 31 37 94 32 112 95 4 0 2 39 9 2 0 16 15 4 4 14 192 187
4 9 19 18 19 27 26 28 17 14 21 11 9 8 2 13 8 70 54 5 0 39 32 17 9 1 34 309 12 24 11 5 11 37 47 39 126 63 150 27 3 2 23 44 4 2 14 0 0 0 0 0 0 0
0 0 0 0 2 4 5 0 2 3 1 0 0 0 0 0 0 0 1 0 7 26 13 20 10 3 151 261 62 45 45 22 23 20 69 48 65 101 9 0 16 18 2 31 38 8 0 0 0 0 0 0 0 0
0 0 0 0 0 0 3 5 13 10 2 1 1 0 1 11 12 54 1 3 31 23 16 9 11 4 10 128 164 64 231 97 90 68 57 43 28 27 20 33 3 4 4 7 0 2 4 1 0 0 0 0 0 0
0 0 0 0 0 0 0 0 10 6 0 0 0 12 59 128 6 19 42 19 14 17 13 2 8 7 9 74 77 26 65 83 19 33 35 12 17 4 50 14 1 0 0 0 4 5 7 0 0 0 0 0 0 0
0 0 0 0 0 0 0 0 5 1 0 16 16 19 10 4 37 30 32 8 11 4 9 5 6 58 40 62 38 58 65 51 11 21 7 8 2 4 36 43 19 0 0 0 0 0 0 0 7 2 7 2 2 0
0 0 0 0 0 0 0 0 1 0 10 1 0 2 3 40 33 18 9 16 17 26 54 53 57 80 19 30 28 43 27 24 11 59 8 9 1 26 52 66 28 3 5 13 2 0 2 6 11 52 57 55 21 56
0 0 0 0 0 0 0 0 0 0 0 2 13 22 10 28 124 6 7 8 19 19 13 50 69 38 34 64 48 55 15 51 57 9 9 11 16 13 23 50 60 50 73 102 81 28 44 92 104 124 139 135 82 79
0 0 0 0 0 0 0 0 0 0 1 12 13 20 115 75 20 10 2 5 66 33 52 68 149 20 39 46 52 44 69 44 10 11 3 1 2 2 46 175 144 133 123 68 64 44 74 54 93 70 124 152 128 106
0 0 0 0 0 0 0 0 0 0 13 34 65 93 48 211 189 175 44 24 201 113 14 248 76 67 61 95 280 111 27 10 11 4 5 6 4 5 125 238 147 82 103 76 48 56 64 56 33 49 73 50 58 56
0 0 0 0 0 0 0 0 16 271 290 128 50 101 105 121 108 137 305 75 162 74 73 11 13 44 72 59 21 21 14 17 24 40 32 27 76 161 223 289 222 274 135 131 95 173 90 83 99 93 89 61 67 64
0 0 0 0 0 0 0 3 50 26 34 33 63 106 95 104 192 102 71 90 158 370 68 14 44 56 73 10 14 29 16 29 20 39 50 46 52 99 113 468 279 222 212 62 66 106 107 0 106 197 178 58 77 39
0 0 0 0 0 0 31 1 69 26 18 50 69 148 206 290 156 320 262 336 231 299 176 27 51 23 27 18 32 56 64 85 153 165 337 568 337 544 367 469 429 307 322 280 44 305 46 18 197 69 136 114 159 94
0 0 0 0 0 0 9 0 20 25 31 53 128 166 197 297 156 198 389 342 175 9 23 2 34 62 99 175 283 317 331 239 47 395 571 568 600 506 476 437 515 315 245 224 112 73 36 166 45 6 22 44 14 5
0 0 0 0 0 7 3 3 16 12 24 73 131 231 129 190 182 121 115 144 81 45 47 79 162 346 447 539 690 702 540 557 393 421 376 79 120 260 320 225 86 538 197 188 56 2 36 15 0 0 0 0 0 0
0 0 0 0 3 2 2 6 14 0 31 117 118 212 304 350 133 33 4 9 12 30 129 242 241 302 401 302 237 414 474 177 464 118 160 356 57 53 59 42 83 35 27 7 3 9 1 0 0 0 0 0 0 0
0 0 0 0 5 4 26 20 25 28 108 161 133 176 288 132 55 26 34 48 126 274 532 132 94 74 150 190 89 79 113 371 379 118 12 69 30 15 22 12 3 6 15 4 1 2 2 0 0 0 0 0 0 0
0 0 10 11 0 0 15 25 10 15 70 91 189 132 119 152 148 90 117 268 285 581 592 220 385 584 305 310 54 4 14 47 36 3 9 0 39 26 25 24 9 8 2 1 0 0 1 0 0 0 6 1 3 1
0 0 4 95 132 17 85 80 87 32 65 130 225 148 128 102 52 73 19 79 101 91 87 159 72 72 53 89 7 0 0 0 0 0 0 0 0 0 0 0 1 1 1 4 4 1 0 1 0 6 11 9 9 8
0 0 112 17 393 288 157 132 161 181 145 202 177 287 236 298 57 38 33 6 14 21 9 6 11 9 11 8 4 0 3 0 0 0 0 1 5 2 0 0 0 0 0 0 0 0 7 6 5 13 12 2 0 0
24 285 51 227 266 214 229 207 245 207 268 104 9 72 399 70 19 12 14 7 11 5 4 14 23 22 18 11 2 0 0 0 0 0 0 0 0 0 0 0 0 0 0 1 6 4 11 14 7 2 0 0 0 2
167 345 520 415 424 404 385 329 356 337 221 208 316 230 131 15 10 3 0 1 2 8 22 15 4 3 1 0 0 0 0 0 0 0 0 1 0 0 0 0 0 0 0 1 0 0 3 3 0 0 0 2 6 8
356 521 451 389 485 397 321 151 36 36 60 198 246 5 1 3 4 5 7 17 3 1 0 3 9 0 0 0 0 0 0 0 0 0 0 0 0 0 0 0 0 0 0 0 0 1 3 1 0 0 0 1 9 5
380 449 165 298 234 75 148 102 19 26 43 123 46 15 6 4 10 15 7 11 22 33 14 17 6 0 0 0 0 0 0 0 0 0 0 0 0 0 0 0 0 0 0 0 0 0 0 0 3 6 7 9 7 3
301 105 399 119 55 18 12 25 9 4 0 0 0 5 12 16 16 23 30 18 13 17 8 7 3 0 0 0 0 0 0 0 0 0 0 0 0 0 0 0 0 0 0 1 1 2 0 1 2 5 7 8 13 9
95 101 167 62 77 25 60 34 12 1 7 7 13 12 17 25 68 29 9 7 15 13 3 3 2 0 0 0 0 0 0 2 0 0 0 0 0 0 0 1 2 4 4 5 7 6 10 10 11 14 13 18 24 22
143 61 159 227 221 192 142 238 237 65 11 21 24 15 38 45 58 62 16 19 10 9 0 5 5 4 0 0 2 0 0 1 0 0 0 0 0 0 0 3 3 5 5 5 5 7 10 11 10 13 15 12 11 10
98 80 65 74 217 323 571 531 442 192 58 91 42 36 22 21 3 8 14 21 7 3 1 0 8 6 2 0 0 0 0 0 0 0 0 0 0 0 0 4 3 6 4 5 6 6 7 8 12 16 15 18 14 16
CIN
-0 -0 -0 -0 -0 -0 -0 -0 -0 -0 -0 -0 -1 -4 -5 -4 -2 -0 -0 -1 -0 -0 -0 -26 -13 -0 -1 -24 -0 -0 -0 -10 -0 -0 -0 -0 -0 -16 -2 -2 -4 -7 -1 -0 -0 -3 -0 -3 -3 -1 -32 -59 -70 -60
-0 -0 -0 -0 -0 -0 -0 -0 -0 -0 -1 -0 -2 -3 -2 -0 -1 -0 -0 -0 -6 -1 -1 -40 -19 -30 -6 -24 -0 -0 -1 -0 -0 -0 -0 -0 -0 -6 -1 -2 -1 -1 -6 -1 -1 -0 -117 -177 -11 -58 -79 -62 -64 -53
-0 -0 -0 -0 -0 -0 -2 -0 -3 -3 -1 -0 -0 -0 -0 -0 -2 -1 -0 -0 -0 -0 -1 -24 -36 -25 -38 -46 -15 -1 -0 -0 -0 -4 -0 -0 -0 -0 -0 -0 -6 -19 -204 -38 -9 -23 -13 -32 -33 -12 -45 -66 -53 -37
-0 -0 -0 -0 -0 -0 -0 -1 -0 -0 -0 -0 -0 -0 -1 -2 -3 -2 -0 -0 -0 -0 -0 -15 -2 -5 -2 -18 -24 -0 -28 -0 -1 -7 -2 -0 -0 -3 -0 -0 -2 -3 -66 -135 -89 -3 -16 -20 -24 -25 -35 -17 -32 -33
-2 -6 -4 -1 -1 -1 -3 -5 -4 -3 -1 -0 -0 -0 -0 -0 -8 -3 -0 -0 -1 -0 -0 -0 -0 -0 -0 -4 -0 -9 -0 -0 -7 -0 -0 -0 -2 -2 -3 -2 -2 -0 -0 -73 -36 -53 -121 -10 -14 -32 -55 -76 -64 -60
-2 -1 -0 -1 -3 -4 -2 -1 -3 -3 -2 -0 -0 -0 -0 -0 -1 -0 -0 -3 -2 -0 -0 -0 -0 -0 -3 -57 -6 -0 -0 -0 -0 -2 -0 -0 -4 -2 -0 -0 -12 -0 -0 -68 -4 -5 -0 -12 -126 -3 -4 -187 -159 -180
-1 -0 -0 -0 -1 -1 -2 -3 -5 -2 -0 -0 -0 -0 -0 -1 -0 -1 -0 -7 -0 -3 -0 -0 -0 -38 -41 -23 -2 -6 -2 -0 -0 -1 -0 -0 -0 -0 -0 -2 -0 -14 -3 -5 -1 -2 -13 -6 -0 -0 -0 -0 -0 -0
-0 -0 -0 -0 -3 -10 -9 -0 -0 -0 -0 -0 -0 -0 -0 -0 -0 -0 -12 -0 -7 -0 -0 -0 -0 -0 -3 -5 -0 -3 -7 -13 -21 -1 -0 -0 -0 -0 -0 -0 -22 -2 -11 -12 -1 -4 -0 -1 -0 -0 -0 -0 -0 -0
-0 -0 -0 -0 -0 -0 -3 -0 -0 -0 -0 -0 -0 -0 -0 -0 -0 -0 -32 -11 -0 -0 -0 -0 -0 -0 -2 -13 -6 -15 -1 -0 -7 -0 -0 -1 -0 -2 -0 -0 -0 -0 -0 -4 -0 -1 -0 -0 -0 -0 -0 -0 -0 -0
-0 -0 -0 -0 -0 -0 -0 -1 -0 -0 -0 -0 -2 -47 -0 -0 -52 -7 -0 -0 -0 -0 -0 -0 -0 -0 -0 -2 -0 -1 -1 -0 -2 -0 -0 -0 -0 -1 -0 -1 -2 -0 -0 -0 -1 -0 -0 -0 -0 -0 -0 -0 -0 -0
-0 -0 -0 -0 -0 -0 -0 -0 -0 -0 -0 -4 -0 -2 -4 -44 -2 -0 -0 -0 -0 -0 -0 -0 -0 -2 -4 -1 -0 -0 -0 -0 -0 -0 -0 -0 -0 -1 -0 -0 -0 -0 -0 -0 -0 -0 -0 -0 -0 -1 -2 -14 -6 -0
-0 -0 -0 -0 -0 -0 -0 -0 -0 -0 -0 -0 -0 -0 -0 -1 -0 -0 -0 -0 -0 -0 -0 -0 -0 -0 -2 -6 -0 -0 -0 -0 -0 -1 -0 -0 -0 -0 -0 -0 -2 -39 -53 -53 -21 -0 -11 -42 -16 -13 -6 -3 -3 -3
-0 -0 -0 -0 -0 -0 -0 -0 -0 -0 -0 -0 -0 -0 -0 -1 -0 -0 -0 -0 -0 -3 -28 -1 -0 -0 -2 -0 -0 -0 -0 -0 -0 -0 -0 -0 -0 -11 -3 -0 -0 -0 -11 -5 -15 -21 -19 -1 -2 -6 -8 -8 -7 -12
-0 -0 -0 -0 -0 -0 -0 -0 -0 -0 -0 -0 -0 -13 -0 -0 -0 -0 -1 -4 -17 -28 -16 -6 -1 -2 -25 -6 -0 -0 -1 -0 -0 -0 -0 -0 -0 -0 -24 -32 -8 -17 -47 -19 -11 -4 -0 -5 -7 -20 -7 -5 -13 -14
-0 -0 -0 -0 -0 -0 -0 -0 -0 -0 -76 -5 -1 -0 -4 -1 -0 -7 -97 -55 -19 -27 -49 -0 -4 -14 -15 -0 -0 -1 -0 -0 -0 -0 -0 -0 -7 -12 -18 -3 -0 -14 -20 -21 -4 -0 -2 -4 -4 -6 -32 -55 -52 -61
-0 -0 -0 -0 -0 -0 -0 -0 -77 -8 -4 -0 -0 -0 -0 -0 -0 -0 -1 -0 -0 -60 -27 -7 -0 -6 -0 -0 -0 -0 -0 -0 -0 -0 -3 -6 -16 -12 -8 -2 -9 -10 -11 -2 -13 -3 -12 -7 -15 -9 -10 -6 -21 -26
-0 -0 -0 -0 -0 -0 -0 -10 -27 -0 -0 -0 -0 -0 -0 -0 -2 -0 -7 -0 -0 -0 -5 -9 -0 -0 -0 -0 -0 -0 -0 -0 -8 -3 -9 -17 -18 -14 -24 -2 -2 -6 -9 -42 -35 -54 -8 -6 -9 -0 -1 -0 -8 -6
-0 -0 -0 -0 -0 -0 -56 -12 -34 -0 -0 -0 -0 -0 -0 -0 -11 -1 -0 -0 -0 -0 -0 -0 -0 -0 -0 -0 -0 -0 -3 -5 -5 -12 -7 -1 -11 -5 -16 -9 -6 -0 -0 -5 -43 -8 -18 -44 -13 -10 -8 -5 -4 -14
-0 -0 -0 -0 -0 -0 -6 -0 -63 -0 -0 -2 -0 -0 -0 -0 -6 -0 -0 -0 -0 -8 -40 -5 -1 -0 -0 -0 -4 -0 -0 -0 -29 -3 -2 -2 -2 -0 -4 -6 -6 -2 -4 -7 -15 -5 -3 -4 -0 -3 -4 -13 -2 -12
-0 -0 -0 -0 -0 -93 -0 -0 -0 -0 -0 -2 -1 -0 -3 -0 -0 -3 -1 -0 -8 -32 -27 -12 -0 -0 -0 -0 -0 -2 -0 -6 -9 -5 -3 -62 -49 -2 -1 -0 -2 -2 -2 -0 -2 -6 -0 -1 -2 -0 -0 -0 -0 -0
-0 -0 -0 -0 -1 -0 -0 -0 -0 -0 -55 -1 -0 -0 -1 -0 -0 -26 -0 -12 -69 -0 -0 -2 -4 -5 -5 -10 -19 -13 -3 -2 -15 -4 -1 -13 -107 -15 -6 -0 -0 -0 -0 -1 -1 -1 -1 -0 -0 -0 -0 -0 -0 -0
-0 -0 -0 -0 -0 -0 -0 -0 -0 -0 -1 -1 -0 -0 -0 -0 -2 -9 -0 -12 -0 -0 -0 -0 -0 -0 -0 -3 -17 -31 -27 -7 -1 -8 -37 -14 -1 -0 -0 -0 -0 -0 -0 -0 -0 -0 -0 -0 -0 -0 -0 -0 -0 -0
-0 -0 -62 -43 -0 -0 -8 -13 -6 -7 -0 -0 -2 -0 -0 -0 -0 -1 -0 -0 -0 -7 -3 -1 -3 -3 -0 -0 -4 -19 -20 -9 -0 -5 -10 -0 -1 -0 -0 -0 -1 -1 -0 -0 -0 -0 -0 -0 -0 -0 -0 -0 -0 -0
-0 -0 -125 -18 -3 -15 -2 -0 -0 -3 -1 -0 -0 -0 -0 -0 -0 -3 -0 -7 -38 -0 -0 -3 -4 -0 -0 -1 -0 -0 -0 -0 -0 -0 -0 -0 -0 -0 -0 -0 -0 -0 -0 -0 -0 -0 -0 -0 -0 -0 -0 -0 -0 -0
-0 -0 -62 -111 -0 -0 -1 -1 -0 -0 -0 -0 -0 -0 -0 -1 -0 -0 -0 -1 -0 -0 -0 -1 -0 -0 -0 -0 -0 -0 -0 -0 -0 -0 -0 -0 -0 -0 -0 -0 -0 -0 -0 -0 -0 -0 -0 -0 -0 -0 -0 -1 -0 -0
-21 -12 -6 -0 -0 -0 -0 -0 -0 -0 -0 -0 -7 -1 -0 -25 -0 -0 -0 -0 -0 -0 -0 -0 -0 -0 -0 -0 -0 -0 -0 -0 -0 -0 -0 -0 -0 -0 -0 -0 -0 -0 -0 -0 -0 -0 -0 -0 -0 -0 -0 -0 -0 -3
-8 -2 -0 -3 -0 -0 -0 -0 -0 -0 -0 -2 -3 -0 -0 -6 -0 -0 -0 -0 -0 -0 -0 -2 -0 -0 -0 -0 -0 -0 -0 -0 -0 -0 -0 -0 -0 -0 -0 -0 -0 -0 -0 -0 -0 -0 -0 -0 -0 -0 -0 -0 -0 -0
-0 -0 -5 -21 -0 -2 -0 -0 -8 -18 -7 -0 -0 -1 -0 -1 -0 -0 -0 -0 -0 -0 -0 -1 -0 -0 -0 -0 -0 -0 -0 -0 -0 -0 -0 -0 -0 -0 -0 -0 -0 -0 -0 -2 -0 -0 -0 -0 -0 -0 -0 -0 -0 -1
-49 -31 -38 -3 -0 -3 -0 -0 -0 -0 -5 -0 -0 -0 -0 -0 -0 -0 -0 -0 -0 -0 -0 -0 -0 -0 -0 -0 -0 -0 -0 -0 -0 -0 -0 -0 -0 -0 -0 -0 -0 -0 -0 -0 -0 -0 -0 -0 -0 -0 -0 -0 -0 -0
-21 -199 -42 -1 -14 -0 -0 -0 -0 -0 -0 -0 -0 -0 -0 -0 -0 -0 -0 -0 -0 -0 -0 -0 -0 -0 -0 -0 -0 -0 -0 -0 -0 -0 -0 -0 -0 -0 -0 -0 -0 -0 -0 -0 -0 -0 -0 -4 -0 -0 -0 -0 -0 -0
-6 -6 -0 -11 -11 -8 -5 -3 -0 -0 -0 -0 -0 -0 -0 -0 -4 -0 -0 -0 -0 -0 -0 -0 -0 -0 -0 -0 -0 -0 -0 -0 -0 -0 -0 -0 -0 -0 -0 -0 -0 -0 -0 -0 -0 -0 -0 -0 -0 -0 -0 -0 -0 -1
-3 -27 -1 -1 -0 -0 -3 -0 -0 -0 -1 -0 -0 -1 -2 -3 -0 -0 -0 -0 -0 -0 -0 -0 -0 -0 -0 -0 -0 -0 -0 -0 -0 -0 -0 -0 -0 -0 -0 -0 -0 -0 -0 -0 -0 -0 -0 -0 -0 -0 -0 -0 -0 -0
-5 -1 -9 -6 -9 -0 -0 -8 -0 -0 -0 -1 -0 -0 -3 -0 -9 -1 -0 -0 -0 -0 -0 -0 -0 -0 -0 -0 -0 -0 -0 -0 -0 -0 -0 -0 -0 -0 -0 -0 -0 -0 -0 -0 -0 -0 -0 -0 -0 -0 -0 -0 -0 -0
Wind_Speed
21 21 20 20 20 19 18 18 17 14 13 14 12 11 9 7 8 7 6 7 6 5 11 17 21 21 17 15 10 4 8 5 8 5 6 6 10 11 13 11 12 8 9 12 14 16 14 6 8 11 5 8 7 7
20 20 20 19 18 18 17 17 15 14 13 13 11 7 8 9 10 7 6 6 6 5 8 19 22 23 24 19 14 14 7 7 5 4 3 4 6 5 6 12 18 18 15 12 12 10 9 10 13 6 3 3 5 5
20 17 17 16 17 18 18 16 14 14 13 12 11 11 11 11 9 6 6 5 4 3 10 16 17 23 25 27 20 15 11 8 7 3 1 4 6 3 2 7 12 15 17 9 14 13 5 14 15 5 3 6 1 6
16 16 16 15 17 17 16 16 15 14 14 13 12 10 10 7 6 7 5 4 1 4 5 13 13 12 14 17 23 22 18 17 3 1 3 4 4 5 3 7 7 3 11 13 11 10 10 8 11 9 8 10 11 14
15 15 16 16 16 16 16 16 16 15 14 13 13 12 11 10 10 9 7 7 6 3 5 12 24 25 15 12 16 20 15 15 4 1 1 4 2 5 3 3 6 5 4 5 6 17 17 13 10 14 15 15 15 15
16 16 17 17 16 16 17 16 16 16 16 15 15 13 12 11 9 5 3 4 2 3 4 5 12 13 7 14 14 13 11 11 8 4 1 4 4 3 4 3 3 6 14 9 9 7 18 2 19 19 18 15 16 16
17 18 17 17 17 17 17 17 17 18 18 18 17 16 14 9 7 4 5 0 6 6 2 6 7 7 14 9 10 5 11 7 3 3 5 3 3 4 4 3 8 12 14 6 9 9 7 19 15 15 18 17 17 16
16 17 17 18 17 17 17 19 20 21 22 20 17 14 13 10 10 7 4 4 2 2 2 4 6 7 2 6 8 4 4 3 6 3 2 3 2 4 3 4 6 6 6 12 13 15 15 10 14 20 19 17 18 16
16 17 17 17 18 20 20 21 22 24 24 24 19 11 5 5 3 2 10 7 3 1 2 2 4 4 7 3 2 3 3 6 2 1 2 3 2 1 6 5 10 8 4 6 11 14 14 12 12 14 17 19 17 15
16 17 19 20 21 22 23 23 24 25 26 24 7 5 4 2 15 12 4 3 3 4 4 4 3 5 3 5 5 3 2 3 2 3 2 3 2 5 11 9 7 6 9 8 12 15 14 18 16 17 13 9 10 14
16 18 20 21 22 22 23 23 22 23 18 3 3 3 6 12 2 2 3 3 3 3 5 5 7 1 2 5 3 3 2 3 2 2 2 4 5 7 7 7 4 5 8 9 11 9 12 11 9 9 8 9 9 10
18 19 21 21 21 22 23 23 19 11 7 7 7 8 4 2 3 2 3 4 4 4 3 3 3 2 2 2 1 2 1 1 3 1 4 3 6 10 6 3 7 7 9 7 8 10 10 9 7 5 6 7 6 3
21 22 22 22 20 19 20 20 17 11 14 5 5 4 2 1 3 4 7 4 5 4 4 4 2 1 2 3 4 2 4 5 3 5 4 2 5 8 9 7 6 6 8 6 6 5 2 2 4 7 8 6 7 7
22 24 23 22 17 18 21 18 16 8 5 3 6 8 9 7 4 5 6 5 6 7 9 7 6 6 6 6 3 3 2 5 5 5 3 4 9 12 13 6 8 10 8 7 8 12 14 11 8 8 6 5 9 8
23 27 25 13 14 22 23 20 15 5 4 4 5 7 6 9 13 7 8 4 2 8 10 9 3 5 6 4 5 4 6 7 6 3 2 4 8 9 4 10 12 11 9 8 11 11 9 8 10 9 8 7 8 9
22 27 3 15 23 25 26 16 5 5 3 1 3 11 11 13 14 16 15 13 13 5 1 3 6 5 9 7 8 10 5 6 3 1 3 3 4 8 8 10 9 8 9 9 7 8 7 8 7 6 7 7 6 5
22 5 18 23 26 27 12 4 4 3 5 4 8 10 10 11 10 12 11 12 10 11 12 6 8 8 6 7 5 6 4 1 3 3 3 6 5 5 6 7 8 9 10 14 10 7 15 8 6 6 5 2 5 5
7 13 18 22 19 14 2 3 6 4 6 6 9 12 11 13 11 13 14 12 12 10 12 10 5 7 5 4 3 3 2 2 2 4 5 6 7 7 6 6 6 9 10 5 3 5 15 9 5 6 6 5 5 6
15 15 21 23 10 5 4 4 5 5 7 8 9 8 11 10 8 11 14 11 12 10 10 6 8 7 7 7 9 9 8 7 3 3 4 7 5 6 6 6 8 7 7 9 11 7 8 7 9 8 8 4 6 7
23 17 16 18 3 5 5 2 3 4 5 8 9 10 9 10 13 12 13 13 12 11 12 9 9 10 9 8 8 7 8 6 6 7 9 7 9 7 9 8 5 3 3 5 7 10 8 9 9 10 10 9 7 8
8 6 9 4 4 3 4 5 4 2 5 5 4 7 5 9 12 14 13 10 11 6 8 7 8 7 8 9 8 7 7 7 5 8 7 8 2 4 6 6 7 7 8 9 9 8 10 9 9 9 8 8 9 8
6 10 5 0 3 5 3 2 4 5 1 3 5 6 4 6 8 8 8 10 7 5 6 9 9 10 10 13 14 16 15 10 9 6 5 3 6 8 7 6 7 8 9 9 8 8 8 8 7 8 8 8 9 8
12 5 4 1 3 2 4 4 4 6 4 2 3 3 3 3 3 1 4 7 5 4 4 5 4 8 11 11 13 15 17 15 10 10 11 11 7 7 6 6 6 6 6 8 9 10 9 9 7 8 7 8 7 9
3 5 5 6 2 2 3 2 2 1 0 3 3 3 3 3 3 4 3 4 4 7 10 12 11 9 10 12 11 11 11 11 11 9 9 9 9 10 10 10 10 11 10 10 9 8 8 9 10 9 8 8 8 6
4 5 1 5 3 5 2 3 3 3 4 3 3 3 3 0 2 4 3 7 9 11 12 12 11 11 11 10 9 10 12 12 11 12 11 11 7 9 10 10 11 13 12 10 10 11 10 10 11 13 13 12 12 12
2 2 3 8 5 5 6 7 6 5 5 3 3 2 3 4 5 4 3 7 8 8 9 9 10 10 10 10 10 10 11 12 11 10 10 11 12 11 11 11 11 12 12 12 12 14 14 13 13 15 12 13 13 11
3 5 2 2 5 3 4 4 5 5 7 6 3 5 0 5 4 2 4 4 5 4 6 7 7 6 8 9 9 10 11 12 13 12 12 11 12 12 11 11 12 11 12 12 12 13 14 13 14 15 15 14 12 13
4 3 5 8 3 6 4 7 6 5 5 2 4 6 5 5 4 2 3 2 5 5 3 3 4 9 10 10 10 10 10 12 13 13 12 12 12 12 13 10 10 11 10 10 11 11 11 12 12 13 13 12 12 14
4 0 3 4 5 5 7 6 5 6 8 3 3 4 4 2 3 0 2 3 4 6 7 8 8 9 9 9 9 10 9 10 14 18 17 11 11 10 11 11 11 11 10 11 7 5 8 9 11 11 13 11 11 12
3 9 4 10 10 7 6 6 7 7 9 9 7 8 6 4 3 2 6 6 7 8 10 9 9 10 10 10 10 10 9 11 11 11 11 11 11 11 11 11 11 10 10 11 10 11 7 10 12 12 12 10 10 11
3 4 7 6 8 7 7 3 7 5 5 6 6 5 5 4 3 5 6 7 7 8 8 8 8 9 9 9 9 9 9 8 12 13 11 9 9 10 10 11 10 11 12 13 13 12 13 11 11 11 11 13 12 11
3 4 4 0 4 7 4 1 0 3 4 1 3 4 4 3 2 2 6 9 9 8 7 6 6 6 7 7 8 7 4 7 8 8 12 9 9 10 11 10 11 11 12 12 11 10 12 12 10 11 10 12 12 12
4 5 5 4 5 6 5 4 3 2 3 3 2 3 4 5 2 4 5 6 6 7 8 10 7 8 9 9 10 8 5 8 9 5 4 3 6 6 8 9 9 12 14 10 10 10 11 12 11 12 13 13 13 13
Wind_Direction
330 330 333 335 335 334 334 338 343 328 322 321 320 316 326 327 290 264 267 226 214 226 275 268 275 287 281 278 276 315 301 253 271 227 184 198 259 262 254 246 255 259 226 222 225 225 221 213 173 205 41 106 62 11
333 332 329 330 335 338 335 343 343 333 329 333 328 325 315 313 310 279 277 268 234 231 275 300 273 268 261 265 275 270 231 278 318 314 333 300 249 310 321 257 238 232 250 260 251 244 131 79 346 58 127 82 38 331
334 333 334 336 337 342 345 346 348 353 348 339 335 330 321 315 309 259 283 283 282 275 278 253 255 251 241 239 240 260 269 251 243 128 287 269 256 283 288 296 314 308 19 291 232 251 148 157 176 140 69 117 146 5
342 344 339 337 335 339 342 345 341 338 336 331 321 315 316 324 325 289 259 267 212 276 273 291 284 295 285 277 211 226 242 264 106 48 323 289 289 7 344 339 318 359 321 343 291 156 110 114 128 139 140 111 87 55
336 337 334 329 332 334 333 330 324 322 324 320 313 307 304 292 283 288 276 256 218 228 287 303 304 272 249 297 224 204 216 227 231 25 6 277 342 341 344 282 258 4 348 331 317 330 310 131 110 94 90 81 94 90
335 334 331 329 327 327 328 326 328 324 318 313 305 304 301 302 308 305 288 41 179 188 301 298 322 307 314 227 239 176 209 225 237 115 233 267 248 239 255 244 262 326 316 270 313 29 21 144 94 79 76 75 91 82
342 340 338 335 333 330 326 324 317 312 307 304 302 293 287 287 286 277 289 271 312 302 278 290 293 310 327 311 166 164 196 204 221 153 208 261 256 220 263 284 340 5 303 202 94 60 67 4 46 72 76 69 63 67
336 334 333 330 327 322 318 314 313 309 308 307 304 287 268 266 267 262 210 215 107 111 229 280 285 304 45 246 136 148 164 159 216 240 125 240 246 243 258 346 335 332 350 96 160 135 127 111 67 59 51 68 62 52
329 325 323 322 319 314 314 317 321 317 308 307 311 289 261 217 230 207 119 140 83 263 268 227 284 292 322 326 20 60 205 201 143 159 263 296 311 16 299 78 72 38 38 96 104 94 94 93 84 61 53 53 47 34
323 321 316 311 309 308 309 312 318 316 307 306 279 198 255 154 117 130 143 170 166 181 199 249 225 251 225 225 195 88 220 195 155 201 134 14 320 306 88 83 97 101 68 61 85 89 84 72 64 64 64 60 38 22
323 320 316 311 310 309 310 316 322 321 294 214 267 254 3 153 195 235 258 216 156 243 204 220 240 233 215 237 279 24 34 112 147 141 85 20 348 357 35 39 23 63 97 83 95 99 85 74 56 59 54 101 94 65
320 317 312 313 314 310 310 320 326 317 345 327 301 287 270 215 225 270 277 272 257 335 306 287 319 195 198 285 340 183 337 120 49 48 62 43 310 356 353 239 207 191 162 139 111 100 93 93 86 31 17 28 71 125
319 317 316 316 313 305 311 319 317 303 283 236 230 248 325 345 321 1 352 326 319 268 256 308 242 117 246 195 210 220 34 52 138 48 50 300 271 295 318 319 218 222 260 198 179 176 66 144 139 109 76 19 18 50
317 315 317 317 309 310 321 322 314 327 282 327 325 333 359 337 314 145 260 256 265 259 287 282 296 177 185 176 109 46 75 48 55 46 1 284 306 315 317 319 107 151 167 131 80 83 99 82 89 70 66 85 54 19
316 313 316 308 321 332 324 316 307 271 275 347 358 0 333 313 339 29 211 264 211 305 305 331 35 26 16 32 20 53 56 53 43 343 257 281 282 273 5 46 48 45 47 52 72 90 96 85 89 85 93 57 45 35
317 307 350 345 346 328 318 306 241 229 240 325 332 17 359 354 352 3 349 2 338 137 286 357 21 19 38 28 19 18 43 30 46 113 304 312 359 45 43 52 35 35 50 47 54 58 66 74 75 65 80 93 75 66
307 251 14 352 333 316 303 281 274 339 12 48 12 16 355 352 338 357 347 351 8 18 28 39 35 20 20 37 28 10 42 42 301 4 89 63 40 72 65 49 44 43 47 36 7 4 68 339 40 89 101 89 88 114
264 326 350 331 329 303 221 341 316 26 28 22 24 16 1 13 2 357 359 20 19 25 41 59 71 44 28 37 70 42 140 140 113 95 75 68 62 48 52 60 64 59 49 74 268 27 75 334 1 33 10 41 56 20
297 306 308 299 304 302 316 29 330 353 31 25 49 13 2 21 9 10 12 30 46 43 42 40 43 30 36 31 33 36 43 68 20 35 56 60 66 65 90 67 87 73 60 50 26 47 62 51 25 38 16 70 67 33
290 285 275 286 189 282 1 15 284 3 357 28 29 39 34 21 26 30 32 26 42 41 36 38 43 40 38 29 29 30 31 28 40 42 54 27 351 19 35 40 51 113 77 88 77 26 31 38 22 7 3 343 360 6
253 358 316 278 190 329 4 332 47 359 329 46 26 52 40 35 37 45 50 42 49 38 47 72 73 49 33 34 18 12 18 51 39 41 54 95 288 16 52 27 12 41 43 27 13 30 27 31 13 356 336 351 5 321
13 320 289 48 344 350 6 50 329 349 319 85 51 53 33 37 54 33 30 39 44 39 357 45 44 59 58 39 23 12 6 9 37 35 344 331 49 18 34 30 34 26 29 31 5 21 21 32 14 336 359 5 349 351
287 208 259 310 10 66 282 4 24 359 13 48 29 51 49 55 32 5 55 26 18 351 34 20 23 33 42 57 54 23 2 1 15 41 6 356 14 21 9 30 31 46 38 34 10 14 6 354 9 335 11 358 0 10
166 312 338 342 347 296 291 340 105 269 234 22 26 96 85 76 55 55 61 356 298 24 36 21 12 21 34 25 28 35 4 1 5 23 20 2 8 4 11 11 34 42 25 21 9 351 348 350 335 346 358 342 4 18
333 330 306 290 242 321 291 355 6 35 351 323 36 91 66 278 132 94 38 15 10 20 17 3 13 15 19 11 16 28 23 8 4 355 9 353 10 26 27 11 23 45 10 1 345 339 356 353 345 2 8 24 12 349
8 112 20 358 18 2 349 359 1 2 337 26 9 313 125 31 63 49 27 344 6 15 354 4 1 358 360 2 360 21 24 8 9 359 351 355 39 31 18 6 10 22 352 348 2 0 1 357 1 4 359 357 347 341
357 13 12 162 293 21 0 2 8 24 16 5 6 307 117 70 56 44 285 316 346 344 339 350 350 346 356 8 4 29 29 14 16 355 337 31 45 41 19 7 17 12 337 11 4 349 359 2 1 353 342 340 338 347
249 77 66 337 342 68 353 18 16 18 13 356 333 14 49 38 52 117 242 321 321 326 322 260 6 17 4 12 15 23 29 20 11 8 354 21 27 30 12 1 12 352 351 23 11 356 12 2 345 345 341 334 351 6
173 219 51 255 59 49 41 28 22 15 343 3 74 50 85 83 138 208 330 279 260 285 330 12 33 27 3 18 25 17 36 35 15 13 9 7 10 11 2 4 3 2 3 352 19 49 35 350 347 3 5 6 7 3
99 138 215 49 67 80 40 49 50 47 54 62 90 105 126 134 109 303 292 329 352 8 28 12 33 33 6 13 14 21 22 53 39 23 0 356 360 1 355 4 1 359 357 346 352 2 33 353 13 12 11 2 10 355
5 70 71 60 90 97 107 64 92 81 75 74 70 107 121 94 350 345 358 350 4 22 30 9 30 50 16 11 13 14 3 47 49 34 12 349 360 1 350 356 360 359 1 353 359 9 13 3 12 7 4 5 5 354
343 18 103 192 107 106 155 131 161 155 141 184 159 152 126 170 91 27 359 2 0 17 36 8 20 50 58 0 26 17 345 53 46 34 23 15 9 3 345 7 3 355 354 1 3 10 8 9 5 6 357 350 357 349
14 41 8 63 159 209 134 151 174 250 223 142 124 135 115 99 74 36 11 14 24 27 18 358 18 62 64 43 24 350 23 91 109 140 190 244 281 301 320 2 2 357 350 7 13 6 7 7 9 5 3 0 359 352